Muenchen, Germany

6:30 PM CEST on September 29, 2016 (GMT +0200)
Munich Airport

Weather History for EDDM - August, 2013

Change the Weather History Date:

Saturday, August 17, 2013

  Actual Average Record
Temperature  
Mean Temperature 67 °F -  
Max Temperature 84 °F 73 °F 86 °F (1998)
Min Temperature 50 °F 54 °F 44 °F (2008)
Cooling Degree Days 2    
Growing Degree Days 17 (Base 50)    
Moisture  
Dew Point 53 °F    
Average Humidity 65    
Maximum Humidity 100    
Minimum Humidity 30    
Precipitation  
Precipitation 0.00 in - - ()
Sea Level Pressure  
Sea Level Pressure 30.05 in    
Wind  
Wind Speed 4 mph ()    
Max Wind Speed 12 mph    
Max Gust Speed 21 mph    
Visibility 6.2 miles    
Events Fog    
Averages and records for this station are not official NWS values.
T = Trace of Precipitation, MM = Missing Value Source: Averaged Metar Reports

Daily Weather History Graph

Daily Weather History Graph

Search for Another Location

Airport or City:

Trip Planner

Search our weather history database for the weather conditions in past years. The results will help you decide how hot, cold, wet, or windy it might be!

Date:

Astronomy

Aug. 17, 2013 Rise Set
Actual Time 6:09 AM CEST 8:23 PM CEST
Civil Twilight 5:35 AM CEST 8:57 PM CEST
Nautical Twilight 4:52 AM CEST 9:39 PM CEST
Astronomical Twilight 4:03 AM CEST 10:27 PM CEST
Moon 5:31 PM CEST (8/17) 1:45 AM CEST (8/17)
Length of Visible Light 15h 22m
Length of Day
14h 13m
Waxing Gibbous, 82% of the Moon is Illuminated
Aug 17
Waxing Gibbous
Aug 21
Full
Aug 28
Last Quarter
Sep 5
New
Sep 12
First Quarter

Hourly Weather History & Observations

Time (CEST) Temp. Heat Index Dew Point Humidity Pressure Visibility Wind Dir Wind Speed Gust Speed Precip Events Conditions
12:20 AM 55.4 °F - 51.8 °F 88% 30.09 in - NNW 2.3 mph - N/A   Clear
12:50 AM 55.4 °F - 51.8 °F 88% 30.09 in - Variable 1.2 mph - N/A   Clear
1:20 AM 53.6 °F - 51.8 °F 94% 30.06 in - NW 1.2 mph - N/A   Clear
1:50 AM 53.6 °F - 50.0 °F 88% 30.06 in - West 2.3 mph - N/A   Clear
2:20 AM 51.8 °F - 50.0 °F 94% 30.06 in - WSW 2.3 mph - N/A   Clear
2:50 AM 51.8 °F - 50.0 °F 94% 30.06 in - NNW 2.3 mph - N/A   Clear
3:20 AM 51.8 °F - 50.0 °F 94% 30.06 in - NNE 2.3 mph - N/A   Clear
3:50 AM 50.0 °F - 50.0 °F 100% 30.06 in - Variable 1.2 mph - N/A   Clear
4:20 AM 50.0 °F - 48.2 °F 94% 30.06 in - South 1.2 mph - N/A   Clear
4:50 AM 50.0 °F - 48.2 °F 94% 30.06 in - South 2.3 mph - N/A   Clear
5:20 AM 50.0 °F - 48.2 °F 94% 30.06 in 6.2 mi West 2.3 mph - N/A Fog Shallow Fog
5:50 AM 50.0 °F - 48.2 °F 94% 30.06 in 6.2 mi West 2.3 mph - N/A Fog Shallow Fog
6:20 AM 50.0 °F - 50.0 °F 100% 30.09 in 6.2 mi South 2.3 mph - N/A Fog Shallow Fog
6:50 AM 50.0 °F - 50.0 °F 100% 30.09 in 6.2 mi Variable 1.2 mph - N/A Fog Shallow Fog
7:20 AM 51.8 °F - 51.8 °F 100% 30.09 in - Variable 1.2 mph - N/A   Clear
7:50 AM 55.4 °F - 55.4 °F 100% 30.09 in - NNW 1.2 mph - N/A   Clear
8:20 AM 60.8 °F - 57.2 °F 88% 30.09 in - SSW 2.3 mph - N/A   Clear
8:50 AM 62.6 °F - 57.2 °F 82% 30.09 in - SW 3.5 mph - N/A   Clear
9:20 AM 66.2 °F - 57.2 °F 73% 30.09 in - SW 5.8 mph - N/A   Clear
9:50 AM 69.8 °F - 57.2 °F 64% 30.09 in - West 5.8 mph - N/A   Clear
10:20 AM 73.4 °F - 55.4 °F 53% 30.06 in - West 8.1 mph - N/A   Clear
10:50 AM 75.2 °F - 57.2 °F 53% 30.06 in - West 6.9 mph - N/A   Clear
11:20 AM 77.0 °F - 55.4 °F 47% 30.06 in - West 6.9 mph - N/A   Clear
11:50 AM 78.8 °F - 53.6 °F 42% 30.06 in - West 8.1 mph - N/A   Clear
12:20 PM 78.8 °F - 55.4 °F 44% 30.06 in - West 8.1 mph - N/A   Clear
12:50 PM 80.6 °F 80.5 °F 55.4 °F 42% 30.06 in - WNW 9.2 mph - N/A   Clear
1:20 PM 80.6 °F 80.5 °F 55.4 °F 42% 30.06 in - West 9.2 mph - N/A   Clear
1:50 PM 80.6 °F 80.3 °F 53.6 °F 39% 30.04 in - West 9.2 mph - N/A   Clear
2:20 PM 80.6 °F 80.3 °F 53.6 °F 39% 30.04 in - WNW 9.2 mph 20.7 mph N/A   Clear
2:50 PM 82.4 °F 81.4 °F 53.6 °F 37% 30.04 in - WNW 11.5 mph - N/A   Clear
3:20 PM 82.4 °F 81.4 °F 53.6 °F 37% 30.04 in - WNW 10.4 mph - N/A   Clear
3:50 PM 82.4 °F 81.4 °F 53.6 °F 37% 30.01 in - West 8.1 mph - N/A   Clear
4:20 PM 82.4 °F - 51.8 °F 35% 30.01 in - WNW 9.2 mph - N/A   Clear
4:50 PM 84.2 °F - 50.0 °F 30% 30.01 in - West 6.9 mph - N/A   Clear
5:20 PM 82.4 °F - 51.8 °F 35% 30.01 in - WNW 8.1 mph - N/A   Clear
5:50 PM 82.4 °F - 50.0 °F 32% 30.01 in - West 4.6 mph - N/A   Clear
6:20 PM 82.4 °F - 50.0 °F 32% 30.01 in - WNW 8.1 mph - N/A   Clear
6:50 PM 82.4 °F - 50.0 °F 32% 30.01 in - WNW 5.8 mph - N/A   Clear
7:20 PM 82.4 °F - 50.0 °F 32% 30.01 in - West 4.6 mph - N/A   Clear
7:50 PM 78.8 °F - 46.4 °F 32% 30.04 in - WNW 3.5 mph - N/A   Clear
8:20 PM 75.2 °F - 51.8 °F 44% 30.04 in - NNW 3.5 mph - N/A   Clear
8:50 PM 71.6 °F - 53.6 °F 53% 30.04 in - NW 3.5 mph - N/A   Clear
9:20 PM 68.0 °F - 53.6 °F 60% 30.04 in - NNW 3.5 mph - N/A   Clear
9:50 PM 66.2 °F - 53.6 °F 64% 30.04 in - SE 1.2 mph - N/A   Clear
10:20 PM 64.4 °F - 55.4 °F 73% 30.04 in - Variable 2.3 mph - N/A   Clear
10:50 PM 60.8 °F - 55.4 °F 82% 30.04 in - South 2.3 mph - N/A   Clear
11:20 PM 60.8 °F - 55.4 °F 82% 30.04 in - South 2.3 mph - N/A   Clear
11:50 PM 60.8 °F - 55.4 °F 82% 30.04 in - SSW 1.2 mph - N/A   Clear